IGO19K OMDB-VABB

Flight info

Callsign IGO19K
Flight time 2h 47m
Altitude 35000
Route IVURO M677 LALDO B505 NADSO A777 VAXIM P307 PARAR N571 SUGID KETOR2A
Aircraft A320/M-SDE3FGHIRWY/LB1

Departure

Time 2026-04-23 16:36
Airport Dubai International Airport (OMDB)

Arrival

Time 2026-04-23 19:23
Airport Chhatrapati Shivaji Maharaj International Airport (VABB)
Time Latitude Longitude Altitude Speed Heading
2026-04-23 16:12 25.26001 55.34299 12 ft 0 kts 211°
2026-04-23 16:21 25.26012 55.34305 12 ft 3 kts 212°
2026-04-23 16:21 25.26029 55.34318 13 ft 3 kts 212°
2026-04-23 16:21 25.26046 55.34330 11 ft 3 kts 211°
2026-04-23 16:22 25.26060 55.34338 11 ft 1 kts 191°
2026-04-23 16:22 25.26068 55.34340 11 ft 1 kts 144°
2026-04-23 16:22 25.26075 55.34334 12 ft 1 kts 124°
2026-04-23 16:22 25.26078 55.34328 11 ft 0 kts 123°
2026-04-23 16:24 25.26075 55.34334 10 ft 2 kts 123°
2026-04-23 16:24 25.26063 55.34354 10 ft 4 kts 123°
2026-04-23 16:25 25.26045 55.34386 10 ft 6 kts 118°
2026-04-23 16:25 25.26022 55.34431 10 ft 8 kts 122°
2026-04-23 16:25 25.25990 55.34485 10 ft 9 kts 123°
2026-04-23 16:25 25.25996 55.34550 11 ft 10 kts 48°
2026-04-23 16:26 25.26053 55.34602 11 ft 11 kts 43°
2026-04-23 16:26 25.26111 55.34671 10 ft 13 kts 46°
2026-04-23 16:26 25.26178 55.34749 11 ft 15 kts 45°
2026-04-23 16:26 25.26270 55.34813 11 ft 17 kts 31°
2026-04-23 16:27 25.26338 55.34898 10 ft 17 kts 102°
2026-04-23 16:27 25.26277 55.35011 10 ft 18 kts 121°
2026-04-23 16:27 25.26212 55.35129 11 ft 19 kts 121°
2026-04-23 16:27 25.26211 55.35132 10 ft 19 kts 121°
2026-04-23 16:28 25.26178 55.35192 10 ft 20 kts 121°
2026-04-23 16:28 25.26102 55.35325 10 ft 21 kts 123°
2026-04-23 16:28 25.26027 55.35463 9 ft 23 kts 120°
2026-04-23 16:28 25.25941 55.35618 11 ft 25 kts 122°
2026-04-23 16:29 25.25878 55.35732 9 ft 26 kts 121°
2026-04-23 16:29 25.25776 55.35910 9 ft 27 kts 121°
2026-04-23 16:29 25.25678 55.36091 10 ft 27 kts 122°
2026-04-23 16:29 25.25580 55.36267 11 ft 28 kts 121°
2026-04-23 16:30 25.25478 55.36453 11 ft 29 kts 121°
2026-04-23 16:30 25.25380 55.36629 9 ft 25 kts 122°
2026-04-23 16:30 25.25282 55.36801 9 ft 27 kts 122°
2026-04-23 16:30 25.25194 55.36967 9 ft 22 kts 121°
2026-04-23 16:31 25.25109 55.37116 10 ft 24 kts 122°
2026-04-23 16:31 25.25022 55.37275 10 ft 25 kts 120°
2026-04-23 16:31 25.24931 55.37437 10 ft 25 kts 122°
2026-04-23 16:31 25.24837 55.37609 10 ft 26 kts 120°
2026-04-23 16:32 25.24743 55.37781 12 ft 26 kts 122°
2026-04-23 16:32 25.24676 55.37901 13 ft 11 kts 122°
2026-04-23 16:32 25.24684 55.37966 12 ft 7 kts 30°
2026-04-23 16:32 25.24691 55.37969 12 ft 1 kts 25°
2026-04-23 16:33 25.24694 55.37971 11 ft 0 kts 28°
2026-04-23 16:33 25.24698 55.37973 11 ft 1 kts 28°
2026-04-23 16:34 25.24711 55.37981 13 ft 3 kts 28°
2026-04-23 16:34 25.24737 55.37997 11 ft 5 kts 29°
2026-04-23 16:34 25.24771 55.38019 11 ft 7 kts 30°
2026-04-23 16:34 25.24815 55.38011 12 ft 8 kts 309°
2026-04-23 16:35 25.24843 55.37957 13 ft 12 kts 300°
2026-04-23 16:35 25.24979 55.37713 11 ft 69 kts 301°
2026-04-23 16:35 25.25326 55.37089 10 ft 119 kts 302°
2026-04-23 16:35 25.25831 55.36178 11 ft 157 kts 301°
2026-04-23 16:36 25.26449 55.35057 236 ft 174 kts 302°
2026-04-23 16:36 25.27086 55.33931 861 ft 173 kts 303°
2026-04-23 16:36 25.27718 55.32792 1421 ft 176 kts 303°
2026-04-23 16:36 25.28302 55.31739 1750 ft 183 kts 306°
2026-04-23 16:37 25.28731 55.30968 1994 ft 186 kts 306°
2026-04-23 16:37 25.29600 55.29948 2424 ft 181 kts 331°
2026-04-23 16:37 25.30798 55.29492 2684 ft 190 kts 357°
2026-04-23 16:37 25.32121 55.29596 3143 ft 190 kts
2026-04-23 16:38 25.33461 55.29669 3523 ft 196 kts
2026-04-23 16:38 25.34837 55.29717 3907 ft 203 kts
2026-04-23 16:38 25.36193 55.30383 4025 ft 231 kts 42°
2026-04-23 16:38 25.36919 55.31630 4183 ft 253 kts 68°
2026-04-23 16:39 25.37117 55.32303 4270 ft 262 kts 72°
2026-04-23 16:39 25.37442 55.33858 4468 ft 280 kts 79°
2026-04-23 16:39 25.37717 55.35700 4970 ft 286 kts 81°
2026-04-23 16:39 25.37995 55.37895 5637 ft 291 kts 83°
2026-04-23 16:40 25.38277 55.40125 6317 ft 295 kts 83°
2026-04-23 16:40 25.38582 55.42412 6974 ft 299 kts 83°
2026-04-23 16:40 25.38906 55.44693 7650 ft 302 kts 82°
2026-04-23 16:40 25.39246 55.46996 8337 ft 305 kts 82°
2026-04-23 16:41 25.39595 55.49325 9018 ft 308 kts 82°
2026-04-23 16:41 25.39954 55.51674 9712 ft 311 kts 82°
2026-04-23 16:41 25.40318 55.54054 10224 ft 322 kts 82°
2026-04-23 16:41 25.40703 55.56580 10369 ft 344 kts 82°
2026-04-23 16:42 25.41108 55.59269 10622 ft 361 kts 82°
2026-04-23 16:42 25.41522 55.62027 11135 ft 367 kts 82°
2026-04-23 16:42 25.41944 55.64830 11737 ft 371 kts 82°
2026-04-23 16:42 25.42325 55.67660 12347 ft 373 kts 88°
2026-04-23 16:43 25.42290 55.70530 12946 ft 374 kts 100°
2026-04-23 16:43 25.41790 55.73346 13565 ft 375 kts 107°
2026-04-23 16:43 25.41186 55.76158 14138 ft 378 kts 107°
2026-04-23 16:43 25.40575 55.79001 14688 ft 382 kts 106°
2026-04-23 16:44 25.39957 55.81886 15185 ft 388 kts 106°
2026-04-23 16:44 25.39342 55.84767 15702 ft 392 kts 106°
2026-04-23 16:44 25.38710 55.87719 16220 ft 397 kts 105°
2026-04-23 16:44 25.38071 55.90700 16771 ft 400 kts 105°
2026-04-23 16:45 25.37418 55.93749 17285 ft 404 kts 105°
2026-04-23 16:45 25.36776 55.96752 17797 ft 409 kts 104°
2026-04-23 16:45 25.36119 55.99828 18282 ft 414 kts 104°
2026-04-23 16:45 25.35454 56.02939 18741 ft 417 kts 104°
2026-04-23 16:46 25.34782 56.06068 19224 ft 421 kts 104°
2026-04-23 16:46 25.34101 56.09232 19726 ft 424 kts 104°
2026-04-23 16:46 25.33418 56.12412 20205 ft 428 kts 104°
2026-04-23 16:46 25.32783 56.15643 20688 ft 432 kts 99°
2026-04-23 16:47 25.32477 56.18951 21173 ft 435 kts 95°
2026-04-23 16:47 25.32206 56.22293 21657 ft 438 kts 95°
2026-04-23 16:47 25.31930 56.25658 22124 ft 441 kts 95°
2026-04-23 16:47 25.31649 56.29051 22590 ft 445 kts 96°
2026-04-23 16:48 25.31362 56.32471 23070 ft 448 kts 96°
2026-04-23 16:48 25.31166 56.34789 23398 ft 450 kts 96°
2026-04-23 16:48 25.30780 56.39365 23931 ft 454 kts 95°
2026-04-23 16:48 25.30557 56.42858 24337 ft 456 kts 93°
2026-04-23 16:49 25.30462 56.45180 24606 ft 458 kts 92°
2026-04-23 16:49 25.30372 56.48757 25032 ft 460 kts 91°
2026-04-23 16:49 25.30315 56.52296 25445 ft 462 kts 91°
2026-04-23 16:49 25.30259 56.55814 25836 ft 465 kts 91°
2026-04-23 16:50 25.29939 56.59349 26221 ft 467 kts 101°
2026-04-23 16:50 25.29076 56.62888 26622 ft 468 kts 111°
2026-04-23 16:50 25.27831 56.66220 27017 ft 470 kts 114°
2026-04-23 16:50 25.26549 56.69559 27409 ft 473 kts 114°
2026-04-23 16:51 25.25267 56.72910 27814 ft 476 kts 114°
2026-04-23 16:51 25.23982 56.76289 28193 ft 478 kts 114°
2026-04-23 16:51 25.22714 56.79639 28566 ft 481 kts 113°
2026-04-23 16:51 25.21406 56.83100 28952 ft 483 kts 113°
2026-04-23 16:52 25.20114 56.86517 29516 ft 480 kts 113°
2026-04-23 16:52 25.18831 56.89903 30104 ft 477 kts 113°
2026-04-23 16:52 25.17554 56.93270 30553 ft 475 kts 113°
2026-04-23 16:52 25.16277 56.96626 30981 ft 475 kts 114°
2026-04-23 16:53 25.15011 56.99944 31368 ft 474 kts 113°
2026-04-23 16:53 25.13712 57.03339 31769 ft 474 kts 113°
2026-04-23 16:53 25.12447 57.06642 32157 ft 474 kts 113°
2026-04-23 16:53 25.11166 57.09986 32557 ft 474 kts 113°
2026-04-23 16:54 25.09885 57.13332 32971 ft 473 kts 114°
2026-04-23 16:54 25.08606 57.16672 33399 ft 472 kts 114°
2026-04-23 16:54 25.07332 57.20006 33804 ft 472 kts 114°
2026-04-23 16:54 25.06057 57.23337 34154 ft 472 kts 114°
2026-04-23 16:55 25.04776 57.26672 34421 ft 473 kts 114°
2026-04-23 16:55 25.03487 57.30020 34680 ft 475 kts 114°
2026-04-23 16:55 25.02192 57.33383 34828 ft 478 kts 114°
2026-04-23 16:55 25.00884 57.36780 34872 ft 485 kts 114°
2026-04-23 16:56 24.98218 57.43708 34858 ft 489 kts 113°
2026-04-23 16:56 24.95573 57.50579 34859 ft 491 kts 113°
2026-04-23 16:57 24.92885 57.57539 34861 ft 491 kts 113°
2026-04-23 16:57 24.90206 57.64462 34861 ft 491 kts 113°
2026-04-23 16:58 24.87546 57.71331 34871 ft 490 kts 113°
2026-04-23 16:58 24.84867 57.78226 34877 ft 489 kts 113°
2026-04-23 16:59 24.82160 57.85092 34850 ft 489 kts 114°
2026-04-23 16:59 24.79231 57.91857 34850 ft 490 kts 116°
2026-04-23 17:00 24.76208 57.98569 34855 ft 489 kts 116°
2026-04-23 17:00 24.73228 58.05300 34863 ft 489 kts 116°
2026-04-23 17:01 24.70284 58.12031 34864 ft 488 kts 116°
2026-04-23 17:01 24.67347 58.18767 34860 ft 488 kts 116°
2026-04-23 17:02 24.64403 58.25486 34870 ft 487 kts 116°
2026-04-23 17:02 24.61460 58.32172 34863 ft 485 kts 116°
2026-04-23 17:03 24.58517 58.38833 34862 ft 484 kts 116°
2026-04-23 17:03 24.55580 58.45494 34857 ft 484 kts 116°
2026-04-23 17:04 24.52653 58.52142 34858 ft 483 kts 116°
2026-04-23 17:04 24.49699 58.58825 34857 ft 483 kts 116°
2026-04-23 17:05 24.46754 58.65449 34844 ft 482 kts 116°
2026-04-23 17:05 24.43813 58.72067 34845 ft 483 kts 116°
2026-04-23 17:06 24.40893 58.78641 34847 ft 483 kts 116°
2026-04-23 17:06 24.37949 58.85265 34848 ft 483 kts 116°
2026-04-23 17:07 24.35009 58.91889 34849 ft 483 kts 116°
2026-04-23 17:07 24.32062 58.98508 34849 ft 483 kts 116°
2026-04-23 17:08 24.29111 59.05112 34836 ft 483 kts 116°
2026-04-23 17:08 24.26154 59.11730 34840 ft 483 kts 116°
2026-04-23 17:09 24.23189 59.18343 34850 ft 484 kts 116°
2026-04-23 17:09 24.20206 59.24998 34849 ft 484 kts 116°
2026-04-23 17:10 24.17255 59.31567 34851 ft 484 kts 116°
2026-04-23 17:10 24.14287 59.38167 34868 ft 482 kts 116°
2026-04-23 17:11 24.11323 59.44745 34862 ft 481 kts 116°
2026-04-23 17:11 24.08357 59.51311 34854 ft 482 kts 116°
2026-04-23 17:12 24.05389 59.57888 34851 ft 482 kts 116°
2026-04-23 17:12 24.02427 59.64463 34859 ft 482 kts 116°
2026-04-23 17:13 23.99464 59.71023 34861 ft 481 kts 116°
2026-04-23 17:13 23.96490 59.77572 34866 ft 480 kts 116°
2026-04-23 17:14 23.93519 59.84105 34873 ft 480 kts 116°
2026-04-23 17:14 23.90551 59.90646 34858 ft 480 kts 116°
2026-04-23 17:15 23.87581 59.97170 34863 ft 479 kts 116°
2026-04-23 17:15 23.84610 60.03684 34868 ft 479 kts 116°
2026-04-23 17:16 23.81635 60.10185 34864 ft 478 kts 116°
2026-04-23 17:16 23.78665 60.16683 34863 ft 478 kts 116°
2026-04-23 17:17 23.75696 60.23181 34864 ft 478 kts 116°
2026-04-23 17:17 23.72718 60.29661 34852 ft 478 kts 116°
2026-04-23 17:18 23.68261 60.39386 34855 ft 478 kts 116°
2026-04-23 17:19 23.65280 60.45871 34863 ft 478 kts 116°
2026-04-23 17:19 23.62291 60.52348 34875 ft 478 kts 116°
2026-04-23 17:20 23.59299 60.58819 34871 ft 478 kts 116°
2026-04-23 17:21 23.53327 60.71751 34868 ft 478 kts 116°
2026-04-23 17:21 23.48838 60.81452 34886 ft 478 kts 116°
2026-04-23 17:22 23.44340 60.91120 34876 ft 477 kts 116°
2026-04-23 17:23 23.39853 61.00773 34874 ft 476 kts 116°
2026-04-23 17:24 23.35360 61.10414 34879 ft 475 kts 116°
2026-04-23 17:24 23.30873 61.20020 34883 ft 474 kts 116°
2026-04-23 17:25 23.26571 61.29708 34884 ft 474 kts 114°
2026-04-23 17:26 23.20878 61.42607 34889 ft 473 kts 115°
2026-04-23 17:27 23.16561 61.52238 34888 ft 472 kts 115°
2026-04-23 17:27 23.13693 61.58647 34876 ft 472 kts 115°
2026-04-23 17:28 23.10831 61.65062 34879 ft 471 kts 115°
2026-04-23 17:28 23.08449 61.70385 34878 ft 471 kts 115°
2026-04-23 17:29 23.05580 61.76778 34877 ft 471 kts 115°
2026-04-23 17:30 23.01259 61.86366 34881 ft 471 kts 115°
2026-04-23 17:30 22.96940 61.95962 34886 ft 471 kts 115°
2026-04-23 17:31 22.94059 62.02345 34883 ft 471 kts 115°
2026-04-23 17:31 22.91176 62.08730 34883 ft 471 kts 115°
2026-04-23 17:32 22.88291 62.15116 34885 ft 471 kts 115°
2026-04-23 17:32 22.85407 62.21497 34889 ft 471 kts 115°
2026-04-23 17:33 22.82515 62.27877 34891 ft 472 kts 115°
2026-04-23 17:33 22.79612 62.34252 34890 ft 472 kts 115°
2026-04-23 17:34 22.76713 62.40628 34891 ft 472 kts 115°
2026-04-23 17:35 22.72365 62.50191 34891 ft 472 kts 115°
2026-04-23 17:35 22.68002 62.59741 34896 ft 471 kts 115°
2026-04-23 17:36 22.65095 62.66098 34896 ft 471 kts 115°
2026-04-23 17:36 22.62194 62.72449 34895 ft 471 kts 115°
2026-04-23 17:37 22.59286 62.78789 34895 ft 470 kts 115°
2026-04-23 17:38 22.54936 62.88259 34894 ft 470 kts 114°
2026-04-23 17:38 22.52030 62.94584 34894 ft 470 kts 114°
2026-04-23 17:39 22.49106 63.00949 34895 ft 469 kts 114°
2026-04-23 17:39 22.46217 63.07215 34898 ft 469 kts 114°
2026-04-23 17:40 22.43312 63.13529 34903 ft 469 kts 114°
2026-04-23 17:40 22.40468 63.19865 34900 ft 468 kts 113°
2026-04-23 17:41 22.37656 63.26207 34901 ft 468 kts 113°
2026-04-23 17:41 22.33410 63.35711 34895 ft 468 kts 113°
2026-04-23 17:42 22.29147 63.45193 34904 ft 468 kts 113°
2026-04-23 17:43 22.26304 63.51504 34905 ft 467 kts 113°
2026-04-23 17:43 22.23471 63.57814 34903 ft 467 kts 113°
2026-04-23 17:44 22.20633 63.64119 34901 ft 467 kts 113°
2026-04-23 17:44 22.16372 63.73558 34899 ft 466 kts 114°
2026-04-23 17:45 22.12110 63.82977 34906 ft 465 kts 114°
2026-04-23 17:46 22.07851 63.92382 34901 ft 465 kts 114°
2026-04-23 17:46 22.05008 63.98640 34900 ft 465 kts 114°
2026-04-23 17:47 22.02165 64.04894 34902 ft 465 kts 114°
2026-04-23 17:48 21.97898 64.14255 34914 ft 463 kts 114°
2026-04-23 17:48 21.95065 64.20483 34914 ft 462 kts 114°
2026-04-23 17:49 21.92240 64.26700 34910 ft 462 kts 114°
2026-04-23 17:49 21.89407 64.32903 34897 ft 462 kts 114°
2026-04-23 17:50 21.86566 64.39102 34915 ft 461 kts 114°
2026-04-23 17:50 21.82314 64.48387 34911 ft 461 kts 114°
2026-04-23 17:51 21.79472 64.54565 34913 ft 460 kts 114°
2026-04-23 17:52 21.75216 64.63828 34900 ft 460 kts 114°
2026-04-23 17:52 21.70958 64.73081 34898 ft 460 kts 114°
2026-04-23 17:53 21.66693 64.82323 34898 ft 460 kts 114°
2026-04-23 17:54 21.63848 64.88482 34900 ft 460 kts 114°
2026-04-23 17:54 21.59580 64.97726 34908 ft 460 kts 114°
2026-04-23 17:55 21.55300 65.06959 34912 ft 460 kts 114°
2026-04-23 17:56 21.52444 65.13117 34912 ft 460 kts 114°
2026-04-23 17:56 21.48159 65.22336 34913 ft 460 kts 114°
2026-04-23 17:57 21.45294 65.28476 34906 ft 460 kts 114°
2026-04-23 17:58 21.40991 65.37697 34916 ft 460 kts 114°
2026-04-23 17:58 21.38131 65.43840 34913 ft 460 kts 114°
2026-04-23 17:59 21.35263 65.49973 34914 ft 460 kts 114°
2026-04-23 17:59 21.32406 65.56063 34912 ft 460 kts 114°
2026-04-23 18:00 21.30004 65.61196 34914 ft 460 kts 114°
2026-04-23 18:00 21.26664 65.68322 34920 ft 460 kts 114°
2026-04-23 18:01 21.23795 65.74443 34922 ft 460 kts 114°
2026-04-23 18:01 21.20919 65.80570 34915 ft 460 kts 115°
2026-04-23 18:02 21.18499 65.85698 34916 ft 460 kts 115°
2026-04-23 18:02 21.15147 65.92812 34914 ft 460 kts 115°
2026-04-23 18:03 21.12261 65.98933 34925 ft 460 kts 115°
2026-04-23 18:03 21.09410 66.05069 34923 ft 460 kts 114°
2026-04-23 18:04 21.06629 66.11244 34923 ft 460 kts 114°
2026-04-23 18:04 21.03846 66.17408 34919 ft 460 kts 114°
2026-04-23 18:05 21.01095 66.23472 34912 ft 460 kts 114°
2026-04-23 18:05 20.98298 66.29619 34919 ft 459 kts 114°
2026-04-23 18:06 20.95497 66.35757 34921 ft 459 kts 114°
2026-04-23 18:06 20.92695 66.41889 34921 ft 459 kts 114°
2026-04-23 18:07 20.89887 66.48017 34921 ft 458 kts 115°
2026-04-23 18:07 20.87081 66.54137 34923 ft 458 kts 114°
2026-04-23 18:08 20.84753 66.59226 34919 ft 458 kts 115°
2026-04-23 18:08 20.81478 66.66375 34913 ft 458 kts 115°
2026-04-23 18:09 20.78678 66.72486 34907 ft 458 kts 115°
2026-04-23 18:09 20.75870 66.78597 34908 ft 458 kts 115°
2026-04-23 18:10 20.73054 66.84697 34910 ft 458 kts 115°
2026-04-23 18:10 20.70232 66.90796 34908 ft 458 kts 115°
2026-04-23 18:11 20.67410 66.96902 34915 ft 458 kts 115°
2026-04-23 18:11 20.64596 67.03005 34910 ft 458 kts 115°
2026-04-23 18:12 20.62254 67.08077 34914 ft 458 kts 115°
2026-04-23 18:12 20.59430 67.14184 34912 ft 458 kts 115°
2026-04-23 18:13 20.56602 67.20282 34908 ft 458 kts 115°
2026-04-23 18:13 20.53772 67.26381 34906 ft 459 kts 115°
2026-04-23 18:14 20.50946 67.32475 34905 ft 459 kts 115°
2026-04-23 18:14 20.48106 67.38573 34906 ft 459 kts 116°
2026-04-23 18:15 20.45267 67.44668 34901 ft 459 kts 116°
2026-04-23 18:15 20.42423 67.50765 34902 ft 459 kts 116°
2026-04-23 18:16 20.39579 67.56859 34903 ft 459 kts 116°
2026-04-23 18:16 20.36731 67.62961 34901 ft 460 kts 116°
2026-04-23 18:17 20.32449 67.72100 34899 ft 460 kts 116°
2026-04-23 18:17 20.29600 67.78199 34896 ft 460 kts 116°
2026-04-23 18:18 20.26742 67.84291 34895 ft 460 kts 116°
2026-04-23 18:18 20.23906 67.90342 34898 ft 460 kts 116°
2026-04-23 18:19 20.21047 67.96435 34894 ft 460 kts 116°
2026-04-23 18:19 20.18176 68.02519 34899 ft 460 kts 116°
2026-04-23 18:20 20.15305 68.08602 34898 ft 460 kts 116°
2026-04-23 18:20 20.12434 68.14679 34900 ft 460 kts 116°
2026-04-23 18:21 20.09570 68.20765 34900 ft 460 kts 116°
2026-04-23 18:21 20.06702 68.26837 34895 ft 460 kts 117°
2026-04-23 18:22 20.03830 68.32916 34898 ft 460 kts 117°
2026-04-23 18:22 20.00950 68.38986 34894 ft 460 kts 117°
2026-04-23 18:23 19.96638 68.48089 34895 ft 460 kts 117°
2026-04-23 18:24 19.92309 68.57182 34895 ft 460 kts 117°
2026-04-23 18:25 19.87983 68.66281 34898 ft 460 kts 117°
2026-04-23 18:25 19.85101 68.72351 34894 ft 460 kts 117°
2026-04-23 18:26 19.82206 68.78413 34880 ft 460 kts 117°
2026-04-23 18:26 19.79309 68.84464 34884 ft 460 kts 117°
2026-04-23 18:27 19.76415 68.90516 34889 ft 460 kts 118°
2026-04-23 18:27 19.73530 68.96568 34892 ft 460 kts 117°
2026-04-23 18:28 19.70630 69.02622 34888 ft 460 kts 117°
2026-04-23 18:28 19.67730 69.08664 34892 ft 460 kts 117°
2026-04-23 18:29 19.64833 69.14706 34889 ft 460 kts 117°
2026-04-23 18:29 19.61931 69.20753 34892 ft 460 kts 118°
2026-04-23 18:30 19.59026 69.26786 34888 ft 460 kts 118°
2026-04-23 18:30 19.56109 69.32817 34883 ft 460 kts 118°
2026-04-23 18:31 19.53200 69.38858 34889 ft 460 kts 117°
2026-04-23 18:31 19.50315 69.44903 34886 ft 460 kts 118°
2026-04-23 18:32 19.47433 69.50950 34888 ft 460 kts 118°
2026-04-23 18:32 19.44543 69.56989 34886 ft 460 kts 118°
2026-04-23 18:33 19.41654 69.63036 34884 ft 460 kts 118°
2026-04-23 18:33 19.38764 69.69077 34881 ft 460 kts 118°
2026-04-23 18:34 19.35863 69.75113 34881 ft 460 kts 118°
2026-04-23 18:34 19.32956 69.81144 34879 ft 460 kts 118°
2026-04-23 18:35 19.30051 69.87173 34876 ft 460 kts 118°
2026-04-23 18:35 19.27149 69.93202 34876 ft 459 kts 118°
2026-04-23 18:36 19.24243 69.99224 34874 ft 459 kts 118°
2026-04-23 18:36 19.21338 70.05240 34879 ft 459 kts 118°
2026-04-23 18:37 19.18430 70.11263 34880 ft 460 kts 118°
2026-04-23 18:37 19.15522 70.17282 34878 ft 460 kts 118°
2026-04-23 18:38 19.12759 70.23384 34879 ft 461 kts 113°
2026-04-23 18:38 19.10410 70.29689 34877 ft 461 kts 113°
2026-04-23 18:39 19.08046 70.35990 34871 ft 461 kts 113°
2026-04-23 18:39 19.05685 70.42288 34870 ft 461 kts 113°
2026-04-23 18:40 19.03322 70.48592 34861 ft 461 kts 113°
2026-04-23 18:40 19.00963 70.54849 34869 ft 461 kts 113°
2026-04-23 18:41 18.98589 70.61144 34870 ft 461 kts 113°
2026-04-23 18:41 18.96216 70.67440 34870 ft 461 kts 113°
2026-04-23 18:42 18.93835 70.73786 34865 ft 461 kts 113°
2026-04-23 18:42 18.91475 70.80040 34865 ft 461 kts 114°
2026-04-23 18:43 18.89090 70.86326 34862 ft 461 kts 113°
2026-04-23 18:43 18.86709 70.92616 34857 ft 461 kts 114°
2026-04-23 18:44 18.84321 70.98909 34862 ft 461 kts 114°
2026-04-23 18:44 18.81930 71.05197 34863 ft 461 kts 114°
2026-04-23 18:45 18.79545 71.11482 34857 ft 461 kts 114°
2026-04-23 18:45 18.77159 71.17766 34851 ft 461 kts 114°
2026-04-23 18:46 18.74762 71.24050 34857 ft 461 kts 114°
2026-04-23 18:46 18.72374 71.30329 34750 ft 460 kts 114°
2026-04-23 18:46 18.71299 71.33505 34269 ft 461 kts 104°
2026-04-23 18:47 18.70946 71.36848 33911 ft 460 kts 89°
2026-04-23 18:47 18.71270 71.40196 33492 ft 458 kts 83°
2026-04-23 18:47 18.71683 71.43521 33018 ft 457 kts 83°
2026-04-23 18:47 18.72107 71.46844 32418 ft 458 kts 82°
2026-04-23 18:48 18.72538 71.50182 31844 ft 459 kts 82°
2026-04-23 18:48 18.72967 71.53510 31284 ft 458 kts 82°
2026-04-23 18:48 18.73396 71.56840 30734 ft 457 kts 81°
2026-04-23 18:48 18.73821 71.60161 30197 ft 456 kts 80°
2026-04-23 18:49 18.74242 71.63472 29628 ft 454 kts 80°
2026-04-23 18:49 18.74657 71.66770 29003 ft 452 kts 82°
2026-04-23 18:49 18.75068 71.70048 28398 ft 450 kts 81°
2026-04-23 18:49 18.75476 71.73316 27802 ft 448 kts 80°
2026-04-23 18:50 18.75743 71.75464 27420 ft 446 kts 80°
2026-04-23 18:50 18.76279 71.79782 26654 ft 441 kts 81°
2026-04-23 18:50 18.76676 71.82980 26096 ft 438 kts 82°
2026-04-23 18:50 18.77071 71.86148 25545 ft 434 kts 80°
2026-04-23 18:51 18.77465 71.89296 25005 ft 431 kts 81°
2026-04-23 18:51 18.77857 71.92417 24487 ft 427 kts 81°
2026-04-23 18:51 18.78246 71.95516 23956 ft 424 kts 81°
2026-04-23 18:51 18.78630 71.98590 23454 ft 421 kts 81°
2026-04-23 18:52 18.79009 72.01648 22865 ft 419 kts 81°
2026-04-23 18:52 18.79385 72.04680 22266 ft 416 kts 81°
2026-04-23 18:52 18.79759 72.07700 21697 ft 413 kts 82°
2026-04-23 18:52 18.80131 72.10699 21114 ft 411 kts 81°
2026-04-23 18:53 18.80500 72.13678 20549 ft 409 kts 82°
2026-04-23 18:53 18.80860 72.16612 20006 ft 407 kts 82°
2026-04-23 18:53 18.81225 72.19603 19451 ft 405 kts 82°
2026-04-23 18:53 18.81586 72.22547 18930 ft 404 kts 82°
2026-04-23 18:54 18.81946 72.25480 18405 ft 402 kts 83°
2026-04-23 18:54 18.82307 72.28404 17851 ft 400 kts 83°
2026-04-23 18:54 18.82665 72.31310 17261 ft 398 kts 83°
2026-04-23 18:54 18.83020 72.34197 16683 ft 396 kts 83°
2026-04-23 18:55 18.83367 72.37035 16120 ft 394 kts 83°
2026-04-23 18:55 18.83713 72.39890 15566 ft 391 kts 83°
2026-04-23 18:55 18.84059 72.42762 15010 ft 388 kts 84°
2026-04-23 18:55 18.84284 72.44623 14652 ft 386 kts 83°
2026-04-23 18:56 18.84625 72.47426 14116 ft 383 kts 83°
2026-04-23 18:56 18.84961 72.50205 13589 ft 380 kts 84°
2026-04-23 18:56 18.85294 72.52957 13005 ft 376 kts 84°
2026-04-23 18:56 18.85625 72.55681 12431 ft 373 kts 84°
2026-04-23 18:57 18.85953 72.58392 11866 ft 371 kts 83°
2026-04-23 18:57 18.86384 72.61948 11133 ft 367 kts 84°
2026-04-23 18:57 18.86602 72.63747 10818 ft 363 kts 83°
2026-04-23 18:57 18.86920 72.66359 10490 ft 355 kts 84°
2026-04-23 18:58 18.87229 72.68913 10127 ft 348 kts 83°
2026-04-23 18:58 18.87531 72.71428 9788 ft 342 kts 84°
2026-04-23 18:58 18.87820 72.73898 9421 ft 337 kts 84°
2026-04-23 18:58 18.88105 72.76315 9055 ft 332 kts 83°
2026-04-23 18:59 18.88382 72.78722 8686 ft 329 kts 84°
2026-04-23 18:59 18.88651 72.81109 8320 ft 326 kts 84°
2026-04-23 18:59 18.88914 72.83471 7962 ft 323 kts 84°
2026-04-23 18:59 18.89166 72.85817 7602 ft 320 kts 84°
2026-04-23 19:00 18.89410 72.88149 7247 ft 318 kts 84°
2026-04-23 19:00 18.89647 72.90458 6900 ft 316 kts 84°
2026-04-23 19:00 18.89877 72.92763 6559 ft 314 kts 84°
2026-04-23 19:00 18.90099 72.95051 6211 ft 313 kts 84°
2026-04-23 19:01 18.90309 72.97330 5855 ft 311 kts 84°
2026-04-23 19:01 18.90498 72.99486 5813 ft 309 kts 85°
2026-04-23 19:01 18.90716 73.01740 5438 ft 308 kts 84°
2026-04-23 19:01 18.90940 73.03985 4787 ft 306 kts 83°
2026-04-23 19:02 18.91126 73.06211 4431 ft 303 kts 84°
2026-04-23 19:02 18.91299 73.08423 4074 ft 301 kts 82°
2026-04-23 19:02 18.91883 73.10476 3958 ft 287 kts 57°
2026-04-23 19:02 18.93198 73.11943 3962 ft 266 kts 31°
2026-04-23 19:03 18.94452 73.12483 3841 ft 253 kts 10°
2026-04-23 19:03 18.96136 73.12606 3599 ft 240 kts 359°
2026-04-23 19:03 18.97738 73.12483 3365 ft 228 kts 355°
2026-04-23 19:03 18.99302 73.12312 3129 ft 220 kts 355°
2026-04-23 19:04 19.00810 73.12144 2999 ft 217 kts 355°
2026-04-23 19:04 19.02290 73.11992 2956 ft 206 kts 355°
2026-04-23 19:04 19.03671 73.11860 2953 ft 195 kts 355°
2026-04-23 19:04 19.05006 73.11735 2960 ft 191 kts 355°
2026-04-23 19:05 19.06323 73.11572 2964 ft 188 kts 346°
2026-04-23 19:05 19.07488 73.11045 2981 ft 187 kts 328°
2026-04-23 19:05 19.08436 73.10108 2966 ft 188 kts 309°
2026-04-23 19:05 19.09016 73.08864 2955 ft 192 kts 288°
2026-04-23 19:06 19.09148 73.07469 2957 ft 196 kts 273°
2026-04-23 19:06 19.09128 73.06084 2960 ft 195 kts 273°
2026-04-23 19:06 19.09108 73.04700 2908 ft 183 kts 273°
2026-04-23 19:06 19.09092 73.03388 2756 ft 177 kts 274°
2026-04-23 19:07 19.09075 73.02096 2547 ft 174 kts 275°
2026-04-23 19:07 19.09059 73.00820 2334 ft 174 kts 275°
2026-04-23 19:07 19.09042 72.99545 2138 ft 172 kts 274°
2026-04-23 19:07 19.09027 72.98370 1926 ft 176 kts 274°
2026-04-23 19:08 19.09009 72.97107 1695 ft 163 kts 274°
2026-04-23 19:08 19.08993 72.95962 1496 ft 151 kts 274°
2026-04-23 19:08 19.08980 72.94871 1301 ft 149 kts 276°
2026-04-23 19:08 19.08965 72.93762 1115 ft 149 kts 276°
2026-04-23 19:09 19.08951 72.92686 936 ft 145 kts 274°
2026-04-23 19:09 19.08936 72.91610 770 ft 142 kts 274°
2026-04-23 19:09 19.08925 72.90568 641 ft 139 kts 272°
2026-04-23 19:09 19.08922 72.89549 494 ft 139 kts 270°
2026-04-23 19:10 19.08892 72.88502 201 ft 141 kts 269°
2026-04-23 19:10 19.08878 72.87476 73 ft 139 kts 270°
2026-04-23 19:10 19.08893 72.86536 51 ft 114 kts 264°
2026-04-23 19:10 19.08846 72.85533 88 ft 161 kts 269°
2026-04-23 19:11 19.08837 72.84776 501 ft 169 kts 272°
2026-04-23 19:11 19.08867 72.83488 1091 ft 174 kts 276°
2026-04-23 19:11 19.08952 72.82148 1299 ft 192 kts 283°
2026-04-23 19:11 19.09481 72.80934 1469 ft 207 kts 315°
2026-04-23 19:12 19.10306 72.80305 1594 ft 221 kts 339°
2026-04-23 19:12 19.12427 72.80002 2131 ft 245 kts 359°
2026-04-23 19:12 19.14194 72.79996 2709 ft 255 kts 360°
2026-04-23 19:12 19.15961 72.80213 2907 ft 259 kts 18°
2026-04-23 19:13 19.17341 72.81120 2949 ft 263 kts 44°
2026-04-23 19:13 19.18242 72.82664 2955 ft 273 kts 70°
2026-04-23 19:13 19.18458 72.84686 2957 ft 281 kts 88°
2026-04-23 19:13 19.18391 72.86754 2956 ft 282 kts 90°
2026-04-23 19:14 19.18305 72.88767 3007 ft 283 kts 90°
2026-04-23 19:14 19.18299 72.90419 3014 ft 279 kts 84°
2026-04-23 19:14 19.18337 72.92256 3004 ft 283 kts 89°
2026-04-23 19:14 19.18252 72.94247 3000 ft 281 kts 90°
2026-04-23 19:15 19.18144 72.96314 3002 ft 281 kts 90°
2026-04-23 19:15 19.18039 72.98382 2998 ft 282 kts 90°
2026-04-23 19:15 19.17958 73.00137 2996 ft 282 kts 90°
2026-04-23 19:15 19.17872 73.01874 2981 ft 281 kts 90°
2026-04-23 19:16 19.17774 73.03946 2992 ft 283 kts 90°
2026-04-23 19:16 19.17676 73.06022 2987 ft 282 kts 91°
2026-04-23 19:16 19.17208 73.08027 2979 ft 280 kts 115°
2026-04-23 19:17 19.14285 73.10192 2988 ft 264 kts 173°
2026-04-23 19:17 19.12482 73.10292 2986 ft 251 kts 180°
2026-04-23 19:17 19.10823 73.09951 2994 ft 240 kts 209°
2026-04-23 19:17 19.09864 73.09164 2986 ft 224 kts 234°
2026-04-23 19:18 19.09208 73.07771 2983 ft 205 kts 263°
2026-04-23 19:18 19.09133 73.06324 3025 ft 199 kts 274°
2026-04-23 19:18 19.09113 73.04895 2972 ft 189 kts 274°
2026-04-23 19:18 19.09094 73.03535 2799 ft 181 kts 274°
2026-04-23 19:19 19.09060 73.00973 2401 ft 168 kts 275°
2026-04-23 19:19 19.09044 72.99765 2196 ft 161 kts 275°
2026-04-23 19:20 19.09014 72.97513 1818 ft 148 kts 275°
2026-04-23 19:20 19.09000 72.96432 1641 ft 146 kts 275°
2026-04-23 19:20 19.08987 72.95362 1448 ft 146 kts 274°
2026-04-23 19:20 19.08973 72.94282 1253 ft 148 kts 275°
2026-04-23 19:21 19.08958 72.93194 1073 ft 147 kts 275°
2026-04-23 19:21 19.08939 72.91072 703 ft 140 kts 272°
2026-04-23 19:21 19.08925 72.90051 603 ft 135 kts 271°
2026-04-23 19:22 19.08901 72.89046 370 ft 139 kts 269°
2026-04-23 19:22 19.08886 72.88020 120 ft 138 kts 271°
2026-04-23 19:22 19.08867 72.86356 48 ft 76 kts 269°
2026-04-23 19:23 19.08858 72.85889 48 ft 52 kts 269°
2026-04-23 19:23 19.08894 72.85614 49 ft 24 kts 303°
2026-04-23 19:23 19.08954 72.85481 50 ft 18 kts 293°
2026-04-23 19:24 19.09112 72.85410 48 ft 12 kts
2026-04-23 19:24 19.09156 72.85410 49 ft 0 kts 358°